Regional Weather Roundup
Issued by NWS

Home | Current Version | Previous Version | Text Only | Print | Product List | Glossary Off
Versions: 1 2 3 4 5 6 7 8 9 10 11 12 13 14 15 16 17 18 19 20 21 22 23 24 25 26 27 28 29 30 31 32 33 34 35 36 37 38 39 40 41 42 43 44 45 46 47 48 49 50

698
ASUS43 KMPX 010601
RWRMN
WEATHER ROUNDUP FOR MINNESOTA
NATIONAL WEATHER SERVICE TWIN CITIES/CHANHASSEN MN
1200 AM CST WED MAR 01 2017


NOTE: "FAIR" INDICATES FEW OR NO CLOUDS BELOW 12,000 FEET WITH NO
SIGNIFICANT WEATHER AND/OR OBSTRUCTIONS TO VISIBILITY. N/A MEANS
CURRENT SKY AND/OR WEATHER CONDITIONS ARE NOT AVAILABLE.

MNZ060>063-068>070-010700-
   Twin Cities Metro

CITY           SKY/WX    TMP DP  RH WIND       PRES   REMARKS
TWIN CITIES    CLOUDY    32  25  75 N10       29.71S WCI  24
6HR MIN TEMP:  32; 6HR MAX TEMP:  37; 6HR PCP: TRACE;

ST PAUL        CLOUDY    32  27  81 NE10      29.72S WCI  24
CRYSTAL        CLOUDY    30  23  75 N10       29.72R WCI  21
BLAINE         CLOUDY    32  27  80 NE14      29.72R WCI  22
LAKEVILLE      CLOUDY    30  30 100 N10G16    29.70R WCI  21
EDEN PRAIRIE   CLOUDY    32  25  75 N9        29.70R WCI  24
6HR MIN TEMP:  32; 6HR MAX TEMP:  38;

SOUTH ST PAUL  CLOUDY    32  27  82 N9        29.71R WCI  24
LAKE ELMO      CLOUDY    32  28  86 NE13      29.71S WCI  22
$$
MNZ001>005-007-008-013>017-022>024-027-028-010700-
   Northwest Minnesota

CITY           SKY/WX    TMP DP  RH WIND       PRES   REMARKS
BEMIDJI        CLOUDY    19  12  73 N6        29.84S WCI  11
HALLOCK        CLOUDY     7   1  78 N8        29.95F WCI  -6
ROSEAU         CLOUDY     9   1  72 E5        29.93S WCI   0
WARROAD        CLOUDY    10   1  67 NE6       29.93F WCI   1
THIEF RVR FALL CLOUDY    18   6  59 NE10      29.90F WCI   6
CROOKSTON      CLOUDY    16  12  86 N12       29.92F WCI   3
FOSSTON        CLOUDY    18  12  79 NE8       29.86F WCI   7
DETROIT LAKES  CLOUDY    27  19  74 N5        29.84R WCI  21
MOORHEAD       CLEAR     19  16  86 N12       29.89R WCI   7
PARK RAPIDS    PTCLDY    25  14  63 N8        29.80S WCI  16
MAHNOMEN       FAIR      22  16  78 N9        29.85S WCI  11
$$
MNZ006-009>011-018-025>026-010700-
   North Central Minnesota

CITY           SKY/WX    TMP DP  RH WIND       PRES   REMARKS
BAUDETTE       CLEAR     13   0  56 NE3       29.90F
FLAG ISLAND    CLEAR     10   1  67 N3        29.94R
INTL FALLS     CLEAR     15   2  56 NE5       29.90S WCI   8
6HR MIN TEMP:  15; 6HR MAX TEMP:  26;

WASKISH        CLEAR     16   7  67 N6        29.88F WCI   7
BIG FORK       CLEAR     19  12  73 N5        29.84F WCI  13
LONGVILLE      CLOUDY    27  19  74 N3        29.81S
GRAND RAPIDS   CLOUDY    25  19  78 NE7       29.84R WCI  17
CRANE LAKE     CLEAR     16   5  62 CALM      29.91S
ORR            CLEAR     18   1  49 CALM      29.84S
COOK           CLEAR     18   3  53 NE5       29.85S WCI  11
WALKER         CLOUDY    23  15  72 N7        29.82F WCI  15
$$
MNZ012-019>021-037-010700-
   Northeast Minnesota

CITY           SKY/WX    TMP DP  RH WIND       PRES   REMARKS
DULUTH         CLOUDY    25  19  78 E10       29.79F WCI  15
6HR MIN TEMP:  25; 6HR MAX TEMP:  29; 6HR PCP: TRACE;

ELY            CLEAR     16   3  57 NE6       29.84S WCI   7
HIBBING        PTCLDY    21  14  74 NE6       29.82R WCI  13
EVELETH        CLOUDY    22   6  48 NE8       29.83S WCI  13
DULUTH HARBOR  CLOUDY    28  27  93 NE26      29.83F WCI  13
TWO HARBORS    CLOUDY    27  18  69 NE9       29.80F WCI  17
SILVER BAY     CLOUDY    23  16  74 NE5       29.82F WCI  17
GRAND MARAIS     N/A     21   7  54 NE9       29.87F WCI  11
G MARAIS ARPRT CLOUDY    12   1  62 N16       29.79F WCI  -4
$$
MNZ029>031-032-039>041-046>048-054>057-064-010700-
   West Central Minnesota

CITY           SKY/WX    TMP DP  RH WIND       PRES   REMARKS
FERGUS FALLS   CLOUDY    27  21  80 N6        29.87S WCI  20
WHEATON        CLOUDY    25  21  86 NW12      29.86S WCI  14
MORRIS         CLOUDY    30  27  86 NW7       29.80R WCI  23
ALEXANDRIA     CLOUDY    30  24  78 N7        29.79R WCI  23
ELBOW LAKE     MOCLDY    28  23  84 N8        29.82R WCI  19
WADENA         CLOUDY    25  19  80 N8        29.80R WCI  16
GLENWOOD       CLOUDY    28  25  86 N6        29.78S WCI  22
APPLETON       CLOUDY    32  27  80 N10       29.81S WCI  24
BENSON         CLOUDY    34  27  75 N7        29.81R WCI  28
ORTONVILLE     CLOUDY    27  23  86 N14       29.82S WCI  15
MADISON        CLOUDY    32  28  86 NW14      29.82R WCI  22
WILLMAR        CLOUDY    34  28  80 N7        29.79R WCI  28
$$
MNZ033>034-036-042>043-049>051-058-059-010700-
   Central Minnesota

CITY           SKY/WX    TMP DP  RH WIND       PRES   REMARKS
ST CLOUD       CLOUDY    30  27  88 N9        29.76S WCI  22
6HR MIN TEMP:  30; 6HR MAX TEMP:  32; 6HR PCP: TRACE;

SAUK CENTRE    CLOUDY    30  25  81 N8        29.78S WCI  22
PAYNESVILLE    CLOUDY    31  31 100 N9        29.77S WCI  23
AITKIN         CLOUDY    30  19  64 N7        29.78S WCI  23
PINE RIVER     CLOUDY    28  21  74 N3        29.84S
BRAINERD       CLOUDY    29  22  75 NE10      29.80R WCI  20
STAPLES        CLOUDY    27  21  80 N5        29.79S WCI  21
LONG PRAIRIE   CLOUDY    30  25  80 N6        29.78S WCI  24
LITTLE FALLS   CLOUDY    32  25  74 CALM      29.79R
LITCHFIELD     CLOUDY    30  28  93 N13       29.76R WCI  20
BUFFALO        CLOUDY    30  26  84 N13       29.75R WCI  20
MAPLE LAKE     CLOUDY    31  28  89 N8G16     29.75S WCI  23
HUTCHINSON     CLOUDY    32  28  87 N10G17    29.75R WCI  23
$$
MNZ037-044-045-052-053-010700-
   East Central Minnesota

CITY           SKY/WX    TMP DP  RH WIND       PRES   REMARKS
PRINCETON      CLOUDY    30  27  86 N13       29.75F WCI  20
MORA           CLOUDY    28  23  80 NE3       29.78F
CAMBRIDGE      CLOUDY    30  23  74 N14       29.72F WCI  20
RUSH CITY      CLOUDY    28  24  85 N12G17    29.75S WCI  18
MOOSE LAKE     CLOUDY    28  25  86 E8        29.78R WCI  20
HINCKLEY       MOCLDY    28  25  86 NE12      29.77R WCI  18
CLOQUET        CLOUDY    27  21  80 E9        29.79S WCI  17
MCGREGOR       CLOUDY    30  23  74 NE8       29.80R WCI  23
$$
MNZ071>073-080-081-089-090-097-098-010700-
   Southwest Minnesota

CITY           SKY/WX    TMP DP  RH WIND       PRES   REMARKS
MONTEVIDEO     CLOUDY    30  28  93 N10       29.81R WCI  21
GRANITE FALLS  CLOUDY    34  30  87 NW9       29.81R WCI  26
CANBY          CLOUDY    29  28  93 NW14G20   29.82R WCI  19
MARSHALL       FLURRIES  31  29  92 N14       29.78R WCI  21
REDWOOD FALLS  CLOUDY    33  27  78 N9        29.76R WCI  25
OLIVIA         CLOUDY    34  32  93 N9        29.76R WCI  26
PIPESTONE      CLOUDY    30  27  86 N9        29.75S WCI  22
WINDOM         CLOUDY    32  30  93 N14       29.73R WCI  22
WORTHINGTON    CLOUDY    31  30  96 N15       29.74R FOG     WCI  20
JACKSON        CLOUDY    32  32 100 N8        29.72S FOG     WCI  25
TRACY          MIX PCPN  32  32  99 N10       29.76S WCI  24
SLAYTON        CLOUDY    30  30  98 N12       29.75S FOG     WCI  21
$$
MNZ065>067-074>077-082>085-091>093-010700-
   South Central Minnesota

CITY           SKY/WX    TMP DP  RH WIND       PRES   REMARKS
MANKATO          N/A     32  29  88 N12       29.71R WCI  23
NEW ULM        CLOUDY    32  27  80 NE13      29.73R WCI  22
ST JAMES       CLOUDY    32  30  93 N13       29.73S WCI  22
FAIRMONT       CLOUDY    32  31  96 N13       29.71S WCI  22
GLENCOE        CLOUDY    32  30  92 N10G17    29.72S WCI  24
FARIBAULT      CLOUDY    32  30  93 N12       29.68S WCI  23
WASECA         CLOUDY    32  32 100 N9        29.68S FOG     WCI  24
ALBERT LEA     CLOUDY    34  34 100 N10       29.65R FOG     WCI  26
$$
MNZ078>079-086>088-094>096-010700-
   Southeast Minnesota

CITY           SKY/WX    TMP DP  RH WIND       PRES   REMARKS
ROCHESTER      LGT RAIN  33  33 100 N13       29.63R VSB 3/4 WCI  24
6HR MIN TEMP:  33; 6HR MAX TEMP:  36; 6HR PCP: TRACE;

RED WING       CLOUDY    34  27  75 N5        29.67F WCI  30
STANTON        CLOUDY    33  31  93 N12       29.67R FOG     WCI  24
WINONA         CLOUDY    36  36 100 NW7       29.63S FOG
AUSTIN         MIX PCPN  34  30  86 N8        29.62F WCI  27
PRESTON        CLOUDY    33  33  98 N13       29.61R FOG     WCI  24
$$
ABBREVIATIONS USED IN REMARKS
   TC - TEMPERATURES IN CELSIUS
  WCI - WIND CHILL INDEX
   HX - HEAT INDEX
  VSB - VISIBILITY
$$




USA.gov is the U.S. government's official web portal to all federal, state and local government web resources and services.